Weather in Shamraivka

Ukraine / Kyiv Region     49°46′20″N   29°49′58″E
temp.,
°C
wind,
m/s
gust,
m/s
humid.,
%
clouds,
%
prec.,
mm/h
press.,
hPa
HPBL,
m
27 september, mon
mon2700:00+9n348328 0.0 102261
03:00+8nnw33890 0.0 102248
06:00+6n36945 0.0 1023114
09:00+9nne46770 0.0 1023347
12:00+13nne45530 0.0 10231136
15:00+15nne444618 0.0 10221535
18:00+13ne57535 0.0 1023451
21:00+8ne36785 0.0 102496
28 september, tue
tue2800:00+7ne348433 0.0 102461
03:00+6nne228510 0.0 102524
06:00+6ne33925 0.0 102542
09:00+9ne35765 0.0 1025297
12:00+14ne45524 0.0 10251292
15:00+15ne4443100 0.0 10251930
18:00+13ne3554100 0.0 1026173
21:00+11ne3863100 0.1 1028318
29 september, wed
wed2900:00+9ene3779100 0.1 1029266
03:00+9ene3684100 0.1 1029246
06:00+8ene4788100 0.1 1030312
09:00+9e577996 0.1 1031496
12:00+13e555114 0.0 10311254
15:00+13e5448100 0.0 10311644
18:00+11e4553100 0.0 1031974
21:00+10e4762100 0.0 1032354
30 september, thu
thu3000:00+9e3861100 0.0 1033347
03:00+10ese255698 0.0 1032184
06:00+6e36745 0.0 1033111
09:00+9ese46585 0.0 1033296
12:00+13se45465 0.0 10331290
15:00+16se44365 0.0 10311582
18:00+13ese35390 0.0 1031110
21:00+8ese48525 0.0 1032134
1 october, fri
fri100:00+6se38554 0.0 1034140
03:00+6se34570 0.0 103452
06:00+5se33585 0.0 103437
09:00+9se35455 0.0 1034217
12:00+14sse45308 0.0 10341178
15:00+16sse452899 0.0 10321495
18:00+13se353762 0.0 103270
21:00+9se354411 0.0 103272